sat.trackr.live / text

‹ back to catalog

STARLINK-36965

NORAD 68961 · 2026-099L

PAYLOAD ACTIVE UNKNOWN

§ Identity

Operator
Country
US
Launch date
2026-05-01
Launch site
AFETR
Launch vehicle
Mass (kg)
RCS (m²)

Purposes: comms

External: N2YO · Heavens-Above · Gunter

§ Orbital elements

Epoch: 2026-05-25T04:00:03.998880Z

Period
92.95 min
Inclination
53.1591°
Eccentricity
0.0001138
Mean motion
15.49229494 rev/d
Perigee alt
418.2 km
Apogee alt
419.8 km
Semi-major
6,797.1 km
B*
1.7381e-3
RAAN
270.7278°
Arg perigee
98.8893°
Mean anomaly
230.8254°
Rev number
501

§ Raw data

STARLINK-369651 68961U 26099L   26145.16671295  .00097153  00000+0  17381-2 0  99972 68961  53.1591 270.7278 0001138  98.8893 230.8254 15.49229494  5016

JSON: /api/v1/satellites/68961 · /tle

For live sub-satellite position, see the globe view (requires WebGL).

§ Visibility from observer

Set your observer location to see the next 7 days of passes ≥ 10°. The values pass through the URL so the page stays shareable.

No JS? Fill the form by hand. The geolocation button needs JavaScript.